Location: Champs
(48.8539°N, 2.6040°E)
Time: 10:04:01
(UTC+00:00)

USA 308 - Pass Details

Date: 02 June 2022
Orbit: 549 x 558 km, 54.0° (Epoch: 14 June)

Event Time Altitude Azimuth Distance (km) Brightness Sun altitude
Rises 00:08:33 0° 262° (W) 2,729 6.2 -18.8°
Reaches altitude 10° 00:10:50 10° 268° (W) 1,838 5.4 -18.8°
Maximum altitude 00:14:54 50° 344° (NNW) 711 3.7 -18.7°
Drops below altitude 10° 00:19:00 10° 62° (ENE) 1,848 6.0 -18.6°
Sets 00:21:19 0° 67° (ENE) 2,747 6.8 -18.6°
